DW7516 Ajaltoun LB current weather conditions

sailwx.info

Wind from 174 at 1 knots gusting 6

Air temperature 22.2° C
Dewpoint 19.0° C

Last reported at 2019-Sep-20 14:01 UTC.
Time now 2019-Sep-20 14:39 UTC

Location: N 33°58' E 035°42'.
View on Google Maps.

See reports from other nearby stations

  
Tides and Currents Weather Stations Pressure Air Temp Water Temp Dewpoint Dewpoint Depression Visibility Wind Speed Wind Dir Waves Ship Positions
date/time (UTC)wind fromknots sea level pressurealtimeterstation pressurevisibilityair tempwater tempwave heightnotes
2019-Sep-20 14:01 174 1 gusting 6 22.2
2019-Sep-20 13:46 254 3 gusting 5 22.8
2019-Sep-20 13:41 242 3 gusting 6 22.8
2019-Sep-20 13:36 232 2 gusting 6 22.8
2019-Sep-20 13:31 231 5 gusting 10 22.8
2019-Sep-20 13:16 254 3 gusting 6 23.3
2019-Sep-20 13:11 277 5 gusting 6 23.3
2019-Sep-20 13:06 242 7 gusting 10 23.9
2019-Sep-20 13:01 277 9 gusting 13 24.4
2019-Sep-20 12:46 253 8 gusting 12 25.0
2019-Sep-20 12:41 286 4 gusting 6 25.6
2019-Sep-20 12:36 243 2 gusting 6 25.6
2019-Sep-20 12:31 218 0 gusting 6 25.6
2019-Sep-20 12:16 240 6 gusting 6 25.6
2019-Sep-20 12:11 268 2 gusting 6 26.1
2019-Sep-20 12:06 252 4 gusting 6 25.6
2019-Sep-20 12:01 241 6 gusting 6 26.1
2019-Sep-20 11:46 223 3 gusting 6 25.6
2019-Sep-20 11:41 283 2 gusting 7 25.0
2019-Sep-20 11:36 237 6 gusting 7 25.6
2019-Sep-20 11:31 251 5 gusting 7 26.1
2019-Sep-20 11:16 263 6 gusting 7 26.7
2019-Sep-20 11:11 246 4 gusting 7 27.2
2019-Sep-20 11:06 256 4 gusting 7 27.2
2019-Sep-20 11:01 241 6 gusting 10 27.8
2019-Sep-20 10:46 242 7 gusting 7 27.8
2019-Sep-20 10:41 268 5 gusting 11 27.8
2019-Sep-20 10:36 231 7 gusting 11 27.8
2019-Sep-20 10:31 237 3 gusting 7 27.8
2019-Sep-20 10:16 252 4 gusting 7 27.8
2019-Sep-20 10:11 257 6 gusting 11 27.8
2019-Sep-20 10:06 215 6 gusting 11 27.8
2019-Sep-20 10:01 209 5 gusting 7 27.8
2019-Sep-20 09:46 217 6 gusting 10 28.3
2019-Sep-20 09:41 203 6 gusting 10 28.3
2019-Sep-20 09:36 227 7 gusting 10 27.8
2019-Sep-20 09:31 202 7 gusting 7 28.3
2019-Sep-20 09:16 213 7 gusting 11 27.8
2019-Sep-20 09:11 204 5 gusting 8 27.8
2019-Sep-20 09:06 237 7 gusting 7 27.8
2019-Sep-20 09:01 245 6 gusting 10 27.8
2019-Sep-20 08:46 235 9 gusting 12 27.2
2019-Sep-20 08:41 195 8 gusting 12 27.2
2019-Sep-20 08:36 228 7 gusting 10 27.2
2019-Sep-20 08:31 240 6 gusting 12 26.7
2019-Sep-20 08:16 210 4 gusting 11 26.7
2019-Sep-20 08:11 260 6 gusting 10 26.1
2019-Sep-20 08:06 219 6 gusting 7 26.1
2019-Sep-20 08:01 250 8 gusting 13 25.6
2019-Sep-20 07:46 228 6 gusting 6 26.1
2019-Sep-20 07:41 237 3 gusting 6 26.1
2019-Sep-20 07:36 230 4 gusting 6 26.1
2019-Sep-20 07:31 241 4 gusting 7 25.6
2019-Sep-20 07:16 205 6 gusting 7 25.0
2019-Sep-20 07:11 189 4 gusting 6 25.6
2019-Sep-20 07:06 170 2 gusting 6 25.0
2019-Sep-20 07:01 174 2 gusting 6 25.0
2019-Sep-20 06:46 186 2 gusting 4 24.4
2019-Sep-20 06:41 198 2 gusting 4 24.4
2019-Sep-20 06:36 204 2 gusting 5 24.4
2019-Sep-20 06:31 141 3 gusting 6 24.4
2019-Sep-20 06:16 159 5 gusting 6 23.9
2019-Sep-20 06:11 201 2 gusting 6 23.9
2019-Sep-20 06:06 163 4 gusting 6 23.3
2019-Sep-20 06:01 161 4 gusting 6 23.3
2019-Sep-20 05:46 210 1 gusting 2 23.3
2019-Sep-20 05:41 182 1 gusting 2 22.8
2019-Sep-20 05:36 217 2 gusting 4 22.8
2019-Sep-20 05:31 202 1 gusting 4 22.8
2019-Sep-20 05:16 135 0 gusting 1 21.7
2019-Sep-20 05:11 149 1 gusting 1 21.7
2019-Sep-20 05:06 162 0 gusting 1 21.7
2019-Sep-20 05:01 118 0 gusting 6 21.1
2019-Sep-20 04:46 102 2 gusting 6 20.6
2019-Sep-20 04:41 124 1 gusting 4 20.6
2019-Sep-20 04:36 112 0 gusting 1 20.6
2019-Sep-20 04:31 200 0 gusting 7 20.0
2019-Sep-20 04:16 325 6 gusting 7 19.4
2019-Sep-20 04:11 309 2 gusting 6 18.9
2019-Sep-20 04:06 327 2 gusting 4 18.9
2019-Sep-20 04:01 326 4 gusting 6 18.3
2019-Sep-20 03:46 327 0 gusting 2 18.3
2019-Sep-20 03:41 336 0 gusting 1 18.3
2019-Sep-20 03:36 18.3
2019-Sep-20 03:31 022 1 gusting 2 18.3
2019-Sep-20 03:16 043 1 gusting 2 18.3
2019-Sep-20 03:11 050 1 gusting 1 18.3
2019-Sep-20 03:06 068 0 gusting 1 18.3
2019-Sep-20 03:01 068 1 gusting 1 18.3
2019-Sep-20 02:46 045 1 gusting 1 18.9
2019-Sep-20 02:41 041 1 gusting 1 18.9
2019-Sep-20 02:36 017 1 gusting 1 18.9
2019-Sep-20 02:31 045 1 gusting 1 18.9
2019-Sep-20 02:16 022 0 gusting 1 18.9
2019-Sep-20 02:11 040 0 gusting 0 18.9
2019-Sep-20 02:06 326 0 gusting 0 19.4
2019-Sep-20 02:01 330 0 gusting 1 19.4
2019-Sep-20 01:46 112 20.0
2019-Sep-20 01:41 147 0 gusting 1 20.0
2019-Sep-20 01:36 068 2 gusting 4 20.6
2019-Sep-20 01:31 338 1 gusting 4 21.1
2019-Sep-20 01:16 302 2 gusting 6 21.1
2019-Sep-20 01:11 20.6
2019-Sep-20 01:06 343 2 gusting 6 21.1
2019-Sep-20 01:01 022 2 gusting 2 20.6
2019-Sep-20 00:46 354 1 gusting 1 20.0
2019-Sep-20 00:41 027 0 gusting 1 20.6
2019-Sep-20 00:36 108 0 gusting 0 20.6
2019-Sep-20 00:31 20.6
2019-Sep-20 00:16 031 0 gusting 1 20.6
2019-Sep-20 00:11 152 20.6
2019-Sep-20 00:06 233 20.6
2019-Sep-20 00:01 222 21.1
2019-Sep-19 23:46 292 21.7
2019-Sep-19 23:41 338 21.7
2019-Sep-19 23:36 232 22.2
2019-Sep-19 23:31 220 22.2
2019-Sep-19 23:16 22.2
2019-Sep-19 23:11 350 0 gusting 1 22.2
2019-Sep-19 23:06 22.2
2019-Sep-19 23:01 068 22.2
2019-Sep-19 22:46 045 1 gusting 1 22.2
2019-Sep-19 22:41 054 21.7
2019-Sep-19 22:36 315 21.7
2019-Sep-19 22:31 331 1 gusting 1 22.2
2019-Sep-19 22:16 042 0 gusting 1 21.7
2019-Sep-19 22:11 135 22.2
2019-Sep-19 22:06 224 0 gusting 1 22.2
2019-Sep-19 22:01 002 1 gusting 6 22.2
2019-Sep-19 21:46 349 6 gusting 6 22.2
2019-Sep-19 21:41 347 2 gusting 6 22.2
2019-Sep-19 21:36 338 1 gusting 2 22.2
2019-Sep-19 21:31 341 1 gusting 6 22.2
2019-Sep-19 21:16 22.2
2019-Sep-19 21:11 22.8
2019-Sep-19 20:46 342 1 gusting 2 22.2
2019-Sep-19 20:41 356 0 gusting 1 22.2
2019-Sep-19 20:36 350 0 gusting 0 21.7
2019-Sep-19 20:31 349 1 gusting 1 21.7
2019-Sep-19 20:16 338 1 gusting 2 22.2
2019-Sep-19 20:11 338 1 gusting 2 22.2
2019-Sep-19 20:06 354 1 gusting 1 22.2
2019-Sep-19 20:01 002 2 gusting 6 22.2
2019-Sep-19 19:46 342 1 gusting 2 21.7
2019-Sep-19 19:41 338 1 gusting 2 21.7
2019-Sep-19 19:36 355 0 gusting 1 22.2
2019-Sep-19 19:31 038 0 gusting 0 22.2
2019-Sep-19 19:16 056 0 gusting 1 22.2
2019-Sep-19 19:11 060 0 gusting 1 22.2
2019-Sep-19 19:06 054 1 gusting 1 22.2
2019-Sep-19 19:01 045 1 gusting 1 22.2
2019-Sep-19 18:46 090 22.2
2019-Sep-19 18:41 072 0 gusting 1 22.2
2019-Sep-19 18:36 053 1 gusting 1 22.2
2019-Sep-19 18:31 002 0 gusting 2 22.2
2019-Sep-19 18:16 289 0 gusting 1 22.2
2019-Sep-19 18:11 291 0 gusting 1 22.2
2019-Sep-19 18:06 339 0 gusting 1 22.2
2019-Sep-19 18:01 326 1 gusting 1 22.2
2019-Sep-19 17:46 011 1 gusting 1 22.2
2019-Sep-19 17:41 045 0 gusting 1 22.2
2019-Sep-19 17:36 045 0 gusting 1 21.7
2019-Sep-19 17:31 022 0 gusting 1 21.7
2019-Sep-19 17:16 068 21.7
2019-Sep-19 17:11 068 0 gusting 0 21.7
2019-Sep-19 17:06 068 0 gusting 0 21.7
2019-Sep-19 17:01 068 21.7
2019-Sep-19 16:46 068 0 gusting 0 21.7
2019-Sep-19 16:41 068 0 gusting 0 21.7
2019-Sep-19 16:36 084 21.7
2019-Sep-19 16:31 150 21.7
2019-Sep-19 16:16 161 22.2
2019-Sep-19 16:11 158 22.2
2019-Sep-19 16:06 165 22.2
2019-Sep-19 16:01 202 22.2
2019-Sep-19 15:46 202 22.8
2019-Sep-19 15:41 198 22.8
2019-Sep-19 15:36 160 0 gusting 1 22.8
2019-Sep-19 15:31 145 0 gusting 1 23.3
2019-Sep-19 15:16 197 0 gusting 0 23.9
2019-Sep-19 15:11 202 0 gusting 0 24.4
2019-Sep-19 15:06 144 0 gusting 0 24.4
2019-Sep-19 15:01 183 0 gusting 1 24.4
2019-Sep-19 14:46 161 1 gusting 2 25.0
2019-Sep-19 14:41 188 2 gusting 2 25.6
2019-Sep-19 14:36 180 1 gusting 2 25.6
2019-Sep-19 14:31 195 1 gusting 2 26.1
2019-Sep-19 14:16 162 1 gusting 1 25.6
2019-Sep-19 14:11 175 1 gusting 2 25.6
2019-Sep-19 14:06 147 1 gusting 2 25.6
2019-Sep-19 14:01 137 2 gusting 6 25.6
2019-Sep-19 13:46 114 4 gusting 6 26.1
2019-Sep-19 13:41 142 6 gusting 6 26.7
2019-Sep-19 13:36 145 4 gusting 6 26.7
2019-Sep-19 13:31 130 5 gusting 6 26.7
2019-Sep-19 13:16 176 5 gusting 6 27.2
2019-Sep-19 13:11 190 4 gusting 10 27.8
2019-Sep-19 13:06 164 11 gusting 13 27.2
2019-Sep-19 13:01 184 8 gusting 13 27.2
2019-Sep-19 12:46 144 8 gusting 11 27.8
2019-Sep-19 12:41 166 6 gusting 7 28.3
2019-Sep-19 12:36 193 2 gusting 6 28.9
2019-Sep-19 12:31 283 6 gusting 7 28.9
2019-Sep-19 12:16 197 5 gusting 7 28.3
2019-Sep-19 12:11 175 7 gusting 7 28.9
2019-Sep-19 12:06 169 4 gusting 7 29.4
2019-Sep-19 12:01 240 4 gusting 6 29.4
2019-Sep-19 11:46 240 2 gusting 4 29.4
2019-Sep-19 11:41 254 5 gusting 6 28.9
2019-Sep-19 11:36 277 2 gusting 6 28.9
2019-Sep-19 11:31 200 4 gusting 7 28.9
2019-Sep-19 11:16 164 6 gusting 6 28.9
2019-Sep-19 11:06 178 5 gusting 10 28.9
2019-Sep-19 10:46 179 6 gusting 11 28.3
2019-Sep-19 10:41 202 8 gusting 11 28.9
2019-Sep-19 10:36 184 7 gusting 10 28.9
2019-Sep-19 10:31 194 6 gusting 7 28.9
2019-Sep-19 10:16 218 5 gusting 6 29.4
2019-Sep-19 10:11 214 6 gusting 10 28.9
2019-Sep-19 10:06 208 9 gusting 11 28.9
2019-Sep-19 10:01 216 5 gusting 10 28.9
2019-Sep-19 09:46 185 6 gusting 7 28.3
2019-Sep-19 09:41 189 7 gusting 11 28.3
2019-Sep-19 09:36 203 7 gusting 11 28.3
2019-Sep-19 09:31 175 6 gusting 11 28.3
2019-Sep-19 09:16 173 8 gusting 11 27.8
2019-Sep-19 09:11 175 7 gusting 10 28.3
2019-Sep-19 09:06 171 7 gusting 7 28.3
2019-Sep-19 09:01 174 6 gusting 10 28.3
2019-Sep-19 08:46 200 6 gusting 7 28.9
2019-Sep-19 08:41 202 6 gusting 7 28.3
2019-Sep-19 08:36 182 7 gusting 10 28.3
2019-Sep-19 08:31 179 6 gusting 7 28.3
2019-Sep-19 08:16 325 3 gusting 6 28.9
2019-Sep-19 08:11 231 4 gusting 7 28.9
2019-Sep-19 08:06 238 6 gusting 7 28.9
2019-Sep-19 08:01 199 5 gusting 6 28.9
2019-Sep-19 07:46 148 4 gusting 6 28.9
2019-Sep-19 07:41 159 4 gusting 6 28.3
2019-Sep-19 07:36 205 3 gusting 6 28.3
2019-Sep-19 07:31 158 5 gusting 7 27.8
2019-Sep-19 07:16 206 2 gusting 4 27.8
2019-Sep-19 07:11 203 1 gusting 4 27.8
2019-Sep-19 07:06 219 2 gusting 2 27.8
2019-Sep-19 07:01 230 2 gusting 4 27.8
2019-Sep-19 06:46 186 2 gusting 4 27.2
2019-Sep-19 06:41 215 1 gusting 2 27.2
2019-Sep-19 06:36 216 1 gusting 2 27.2
2019-Sep-19 06:31 208 2 gusting 4 27.2
2019-Sep-19 06:16 161 2 gusting 4 27.8
2019-Sep-19 06:11 197 1 gusting 2 27.8
2019-Sep-19 06:06 191 2 gusting 4 27.8
2019-Sep-19 06:01 196 2 gusting 2 28.3
2019-Sep-19 05:46 241 0 gusting 0 28.3
2019-Sep-19 05:41 202 1 gusting 1 28.3
2019-Sep-19 05:36 192 1 gusting 2 28.3
2019-Sep-19 05:31 235 0 gusting 1 28.9
2019-Sep-19 05:16 214 0 gusting 0 28.3
2019-Sep-19 05:11 190 28.3
2019-Sep-19 05:06 176 1 gusting 1 28.3
2019-Sep-19 05:01 238 27.8
2019-Sep-19 04:46 26.7
2019-Sep-19 04:41 26.7
2019-Sep-19 04:36 26.1
2019-Sep-19 04:31 26.1
2019-Sep-19 04:16 356 2 gusting 2 25.6
2019-Sep-19 04:11 341 1 gusting 2 25.6
2019-Sep-19 04:06 341 1 gusting 1 25.0
2019-Sep-19 04:01 24.4
2019-Sep-19 03:46 353 1 gusting 2 23.9
2019-Sep-19 03:41 338 2 gusting 2 23.9
2019-Sep-19 03:36 351 2 gusting 4 23.9
2019-Sep-19 03:31 358 2 gusting 4 23.9
2019-Sep-19 03:16 25.0
2019-Sep-19 03:11 25.0
2019-Sep-19 03:06 354 0 gusting 1 25.0
2019-Sep-19 03:01 25.0
2019-Sep-19 02:46 004 1 gusting 1 25.0
2019-Sep-19 02:41 008 1 gusting 1 25.0
2019-Sep-19 02:36 005 2 gusting 4 25.0
2019-Sep-19 02:31 25.0
2019-Sep-19 02:16 022 1 gusting 1 25.6
2019-Sep-19 02:11 022 0 gusting 1 25.6
2019-Sep-19 02:06 022 1 gusting 1 25.0
2019-Sep-19 02:01 022 1 gusting 4 25.0
2019-Sep-19 01:46 24.4
2019-Sep-19 01:41 350 1 gusting 1 24.4
2019-Sep-19 01:36 24.4
2019-Sep-19 01:31 358 1 gusting 4 24.4
2019-Sep-19 01:16 24.4
2019-Sep-19 01:11 015 2 gusting 2 24.4
2019-Sep-19 01:06 25.0
2019-Sep-19 01:01 343 1 gusting 2 25.0
2019-Sep-19 00:46 357 2 gusting 2 24.4
2019-Sep-19 00:41 005 1 gusting 2 24.4
2019-Sep-19 00:36 006 0 gusting 2 24.4
2019-Sep-19 00:31 359 2 gusting 6 23.9
2019-Sep-19 00:16 24.4
2019-Sep-19 00:11 342 1 gusting 2 24.4
2019-Sep-19 00:06 24.4
2019-Sep-19 00:01 24.4
2019-Sep-18 23:46 24.4
2019-Sep-18 23:41 004 2 gusting 4 25.0
2019-Sep-18 23:36 005 1 gusting 2 25.0
2019-Sep-18 23:31 022 1 gusting 2 25.0
2019-Sep-18 23:16 013 2 gusting 4 24.4
2019-Sep-18 23:11 002 2 gusting 4 24.4
2019-Sep-18 23:06 24.4
2019-Sep-18 23:01 355 1 gusting 6 25.0
2019-Sep-18 22:46 336 1 gusting 1 25.0
2019-Sep-18 22:41 358 4 gusting 10 25.6
2019-Sep-18 22:36 024 0 gusting 1 25.6
2019-Sep-18 22:31 022 2 gusting 6 25.0
2019-Sep-18 22:16 024 2 gusting 4 25.0
2019-Sep-18 22:11 013 2 gusting 4 25.0
2019-Sep-18 22:06 022 4 gusting 4 25.0
2019-Sep-18 22:01 028 2 gusting 4 25.6
2019-Sep-18 21:46 031 1 gusting 2 25.6
2019-Sep-18 21:41 027 3 gusting 6 25.0
2019-Sep-18 21:36 040 5 gusting 7 25.0
2019-Sep-18 21:31 012 3 gusting 7 25.6
2019-Sep-18 21:16 022 3 gusting 6 25.0
2019-Sep-18 21:11 012 4 gusting 6 25.0
2019-Sep-18 21:06 024 4 gusting 6 25.0
2019-Sep-18 21:01 037 3 gusting 6 25.0
2019-Sep-18 20:46 022 4 gusting 4 25.0
2019-Sep-18 20:41 022 4 gusting 6 24.4
2019-Sep-18 20:36 014 4 gusting 6 24.4
2019-Sep-18 20:31 019 6 gusting 6 24.4
2019-Sep-18 20:16 018 2 gusting 4 25.0
2019-Sep-18 20:11 24.4
2019-Sep-18 20:06 004 2 gusting 4 24.4
2019-Sep-18 20:01 017 1 gusting 4 25.0
2019-Sep-18 19:46 011 0 gusting 1 25.0
2019-Sep-18 19:41 024 0 gusting 1 25.0
2019-Sep-18 19:36 027 1 gusting 2 24.4
2019-Sep-18 19:31 045 2 gusting 2 24.4
2019-Sep-18 19:16 023 1 gusting 2 25.0
2019-Sep-18 19:11 068 0 gusting 1 25.0
2019-Sep-18 19:06 014 1 gusting 1 24.4
2019-Sep-18 19:01 350 24.4
2019-Sep-18 18:46 323 1 gusting 2 24.4
2019-Sep-18 18:41 323 1 gusting 1 24.4
2019-Sep-18 18:36 326 1 gusting 2 24.4
2019-Sep-18 18:31 350 2 gusting 4 24.4
2019-Sep-18 18:16 001 1 gusting 2 25.0
2019-Sep-18 18:11 011 0 gusting 1 24.4
2019-Sep-18 18:06 228 0 gusting 2 24.4
2019-Sep-18 18:01 352 2 gusting 4 24.4
2019-Sep-18 17:46 044 2 gusting 4 24.4
2019-Sep-18 17:41 022 1 gusting 2 24.4
2019-Sep-18 17:36 045 1 gusting 2 23.9
2019-Sep-18 17:31 23.3
2019-Sep-18 17:16 23.3
2019-Sep-18 17:11 087 0 gusting 1 23.3
2019-Sep-18 17:06 354 2 gusting 6 23.3
2019-Sep-18 17:01 23.9
2019-Sep-18 16:46 339 0 gusting 1 23.9
2019-Sep-18 16:41 022 23.9
2019-Sep-18 16:36 012 2 gusting 6 23.9
2019-Sep-18 16:31 343 5 gusting 6 23.9
2019-Sep-18 16:16 052 0 gusting 0 24.4
2019-Sep-18 16:11 090 24.4
2019-Sep-18 16:06 090 24.4
2019-Sep-18 16:01 090 24.4
2019-Sep-18 15:46 090 0 gusting 0 24.4
2019-Sep-18 15:41 090 0 gusting 1 24.4
2019-Sep-18 15:36 109 0 gusting 1 25.0
2019-Sep-18 15:31 25.0
2019-Sep-18 15:16 270 25.6
2019-Sep-18 15:11 202 0 gusting 1 25.6
2019-Sep-18 15:06 167 0 gusting 1 25.6
2019-Sep-18 15:01 143 0 gusting 2 25.6
2019-Sep-18 14:46 183 1 gusting 6 26.7
2019-Sep-18 14:41 193 0 gusting 6 26.7
2019-Sep-18 14:36 186 0 gusting 1 26.7
2019-Sep-18 14:31 116 1 gusting 4 26.7
2019-Sep-18 14:16 165 2 gusting 2 27.2
2019-Sep-18 14:11 156 1 gusting 2 27.2
2019-Sep-18 14:06 181 1 gusting 2 27.2
2019-Sep-18 14:01 135 2 gusting 12 27.2